User: anonymous   Login
Location: Fishcreek Rd Observing Site
(41.1865°N, 81.4271°W)
Time: 11:32:25
(UTC-05:00)
Language:

Iridium 45 - Orbit

View from above orbital plane
View from above orbital plane
View from above satellite
View from above satellite

Ground track
Ground track

The orbit data is extracted from the following two-line orbital elements,

1 25104U 97082A   14353.51300159  .00000849  00000-0  29624-3 0   233
2 25104 087.0276 294.8130 0002508 095.6071 264.5411 14.34214619889849
Epoch (UTC): 19 December 2014 12:18:43
Eccentricity: 0.0002508
inclination: 87.0276°
perigee height: 776 km
apogee height: 779 km
right ascension of ascending node: 294.8130°
argument of perigee: 95.6071°
revolutions per day: 14.34214619
mean anomaly at epoch: 264.5411°
orbit number at epoch: 88984

The dashed part of the orbit path shows where the satellite is in the earth's shadow,  

DLR